This demonstration page uses our WeatherBlox Daily Observations layout. Learn more.

41.55636, -103.73856

Hourly Observations for May 12, 2018

Temp ( °F °C ) Dew Point ( °F °C ) Humidity (%) Winds ( mph kmh ) Pressure ( in mb ) Visibility ( mi km ) Precip ( " mm )
12:58 am 00:58 Cloudy with Light Rain 47 8.3 46 7.8 97 97 NE 12 19 29.91 1013 2.5 4.02335 0.04 1.016
1:58 am 01:58 Cloudy with Light Rain 46 7.6 45 7.1 97 97 NNE 14 22 29.89 1012 4 6.43736 0.04 1.016
2:58 am 02:58 Cloudy with Light Rain 43 6.1 42 5.5 96 96 NNE 16 26 29.91 1013 7 11.26538 0.02 0.508
3:58 am 03:58 Mostly Cloudy with Light Drizzle 42 5.5 41 5 97 97 NNE 14 22 29.91 1013 2 3.21868 0.01 0.254
4:58 am 04:58 Cloudy with Light Showers 41 5.1 40 4.7 97 97 NE 14 22 29.92 1013 4 6.43736 N/A
5:58 am 05:58 Cloudy with Drizzle 41 5.1 40 4.7 97 97 NE 13 20 29.96 1015 2 3.21868 0.01 0.254
6:58 am 06:58 Cloudy with Mist and Fog 41 5.2 41 4.8 97 97 NE 12 19 29.99 1016 2 3.21868 N/A
7:58 am 07:58 Cloudy with Mist and Fog 42 5.5 41 5.2 98 98 NE 8 13 30.01 1016 1.75 2.816345 N/A
8:58 am 08:58 Cloudy with Light Showers 42 5.8 42 5.3 97 97 NE 6 9 30.03 1017 1 1.60934 0 0
9:58 am 09:58 Cloudy with Light Showers 43 6.2 42 5.7 97 97 ENE 6 9 30.04 1017 2 3.21868 N/A
10:58 am 10:58 Cloudy with Mist and Fog 44 6.7 43 6.1 96 96 E 7 11 30.04 1017 5 8.0467 N/A
11:58 am 11:58 Cloudy 47 8.1 45 7.3 95 95 ENE 8 13 30.03 1017 10 16.0934 0 0
12:58 pm 12:58 Cloudy 48 9.1 47 8.2 94 94 E 7 11 29.99 1016 10 16.0934 N/A
1:58 pm 13:58 Cloudy 50 9.9 47 8.6 92 92 ESE 7 11 29.98 1015 10 16.0934 N/A
2:58 pm 14:58 Cloudy 51 10.4 47 8.5 88 88 E 9 15 29.99 1016 10 16.0934 N/A
3:58 pm 15:58 Cloudy 50 9.9 47 8.6 92 92 ENE 9 15 29.98 1015 10 16.0934 N/A
4:58 pm 16:58 Cloudy 50 10.1 48 8.8 92 92 ENE 7 11 29.99 1016 9 14.48406 N/A
5:58 pm 17:58 Cloudy with Mist and Fog 49 9.6 48 8.8 95 95 E 10 17 29.99 1016 5 8.0467 N/A
6:58 pm 18:58 Cloudy with Mist and Fog 48 9.1 47 8.4 95 95 ENE 13 20 30.01 1016 2.5 4.02335 N/A
7:58 pm 19:58 Cloudy with Light Showers 48 8.8 47 8.2 96 96 ENE 8 13 30.03 1017 5 8.0467 N/A
8:58 pm 20:58 Cloudy with Light Showers 48 8.7 47 8.2 97 97 E 9 15 30.04 1017 7 11.26538 N/A
9:58 pm 21:58 Cloudy with Light Showers 48 8.8 47 8.3 97 97 E 9 15 30.05 1018 2 3.21868 0.01 0.254
10:58 pm 22:58 Mostly Cloudy with Light Rain 46 7.7 45 7.2 97 97 ENE 10 17 30.08 1019 1.5 2.41401 N/A
11:58 pm 23:58 Cloudy with Light Showers 46 7.5 45 7.1 97 97 E 14 22 30.03 1017 1.25 2.011675 0 0

Powered by AerisWeather